Torna al catalogo

COSMOS 2255

AttivoMilitarePO
NORAD 22690·PAYLOAD·🇷🇺 Russia

Lanciato Jun 24, 1993 da Plesetsk Cosmodrome

Loading…

Prossimi Passaggi (prossime 24 ore)

TLE

AggiornatoSource: Space-Track

Epoca: Sep 14, 2026, 04:43 UTC

1 22690U 93038D   26257.19672370  .00000031  00000-0  11166-3 0  9991
2 22690  82.5886 172.7769 0006344 130.9426  37.1013 12.63329450532469

Traccia COSMOS 2255 in tempo reale con AllMySat

Download on the App Store